• Join FlightAware (Why Join?)
  • Login
  • US Flag GB Flag 
23:08 EST


 

Airport Tracker/Info


-or-


 

Live Flight TrackerFlight Track Log ✈ AAY841 ✈ 23-Mar-2014 ✈ KTRI - KPIE

Flight Track Log - Related Links

Times and Time Zones

All times are in EDT time to prevent confusion due to time zone crossing. See the AAY841 flight status page for this flight to view local times or setup timezone preferences in your user account.

Time Position Orientation Groundspeed Altitude Reporting Facility
EDT Latitude Longitude Course Direction KTS MPH feet Rate Location/Type
08:53 36.4697 -82.3347 175° South 247 284 4,700  Level Atlanta Center
08:54 36.3928 -82.3417 184° South 264 304 8,200 3,060 Climbing Atlanta Center
08:55 36.3175 -82.3381 178° South 274 315 10,900 2,400 Climbing Atlanta Center
08:56 36.2258 -82.3272 175° South 307 353 13,000 2,340 Climbing Atlanta Center
08:57 36.1314 -82.2958 165° South 346 398 15,600 2,400 Climbing Atlanta Center
08:58 35.9137 -82.4275 175° South  Level Estimated
08:58 36.0286 -82.2594 164° South 372 428 17,900  Level Atlanta Center
08:59 35.9406 -82.2306 165° South 378 435 20,100 2,040 Climbing Atlanta Center
09:00 35.8336 -82.1944 165° South 384 442 22,000 1,980 Climbing Atlanta Center
09:01 35.7247 -82.1586 165° South 396 456 24,100 2,040 Climbing Atlanta Center
09:02 35.6136 -82.1228 165° South 402 463 26,100 1,800 Climbing Atlanta Center
09:03 35.4878 -82.0800 165° South 416 479 27,800 1,140 Climbing Atlanta Center
09:09 34.7626 -81.9755 188° South 442 509 34,100 1,140 Climbing FlightAware ADS-B (KDZJ)
09:10 34.6864 -81.9883 188° South 440 506 35,500 1,140 Climbing FlightAware ADS-B (KDZJ)
09:11 34.5117 -82.0206 189° South 421 484 36,700 540 Climbing FlightAware ADS-B (KDZJ)
09:12 34.4000 -82.0400 189° South 421 484 37,000 240 Climbing Atlanta Center
09:13 34.2814 -82.0628 189° South 427 491 37,200 360 Climbing Atlanta Center
09:14 34.1586 -82.0831 188° South 439 505 37,800 360 Climbing Atlanta Center
09:15 34.0336 -82.1036 188° South 450 518 38,000 60 Climbing Atlanta Center
09:16 33.9089 -82.1264 189° South 450 518 38,000  Level Atlanta Center
09:17 33.7858 -82.1467 188° South 450 518 38,000  Level Atlanta Center
09:18 33.6589 -82.1669 188° South 455 524 38,000  Level Atlanta Center
09:19 33.5361 -82.1894 189° South 455 524 38,000  Level Atlanta Center
09:20 33.4092 -82.2097 188° South 455 524 38,000  Level Atlanta Center
09:21 33.2842 -82.2297 188° South 460 529 38,000  Level Atlanta Center
09:22 33.1614 -82.2497 188° South 460 529 38,000  Level Atlanta Center
09:24 32.9397 -82.2861 188° South 469 540 38,000  Level Jacksonville Center
09:25 32.8144 -82.3067 188° South 464 534 38,000  Level Jacksonville Center
09:26 32.6892 -82.3250 187° South 464 534 38,000  Level Jacksonville Center
09:27 32.5642 -82.3478 189° South 464 534 38,000  Level Jacksonville Center
09:28 32.4411 -82.3708 189° South 459 528 38,000  Level Jacksonville Center
09:29 32.3181 -82.3836 185° South 454 522 38,000  Level Jacksonville Center
09:30 32.1947 -82.4042 188° South 454 522 38,000  Level Jacksonville Center
09:31 32.0717 -82.4244 188° South 449 517 38,000  Level Jacksonville Center
09:32 31.9528 -82.4419 187° South 442 509 38,000 -60 Level Jacksonville Center
09:33 31.8317 -82.4597 187° South 442 509 37,900  Descending Jacksonville Center
09:34 31.7067 -82.4800 188° South 447 514 38,000  Climbing Jacksonville Center
09:35 31.5875 -82.4975 187° South 447 514 38,000  Level Jacksonville Center
09:36 31.4622 -82.5103 185° South 447 514 38,000  Level Jacksonville Center
09:37 31.3225 -82.5228 184° South 459 528 38,000  Level Jacksonville Center
09:38 31.1950 -82.5233 180° South 459 528 38,000  Level Jacksonville Center
09:39 31.0678 -82.5311 183° South 459 528 38,000 -60 Level Jacksonville Center
09:40 30.9406 -82.5364 182° South 459 528 37,900 -60 Descending Jacksonville Center
09:41 30.8131 -82.5419 182° South 459 528 37,900  Level Jacksonville Center
09:42 30.6878 -82.5472 182° South 459 528 38,000  Climbing Jacksonville Center
09:43 30.5583 -82.5525 182° South 459 528 38,000 -660 Level Jacksonville Center
09:49 29.9332 -82.1781 205° Southwest 396 456 33,900 -1,020 Descending FlightAware ADS-B (KMCO)
09:50 29.7984 -82.2484 204° Southwest 406 467 31,200 -2,100 Descending FlightAware ADS-B (KMCO)
09:52 29.6285 -82.3365 204° Southwest 408 470 27,800 -2,220 Descending FlightAware ADS-B (KMCO)
09:56 29.2070 -82.3127 174° South 419 482 19,700 -2,220 Descending FlightAware ADS-B (KMCO)
09:57 29.1053 -82.3005 174° South 398 458 18,000 -2,040 Descending FlightAware ADS-B (KMCO)
09:57 29.0336 -82.2918 174° South 371 427 16,600 -1,920 Descending FlightAware ADS-B (KMCO)
09:58 28.9824 -82.2858 174° South 356 410 15,800 -1,440 Descending FlightAware ADS-B (KMCO)
09:58 28.9225 -82.2787 174° South 356 410 15,000 -960 Descending FlightAware ADS-B (KMCO)
10:01 28.6334 -82.2558 180° South 322 371 12,400 -900 Descending FlightAware ADS-B (KMCO)
10:02 28.5947 -82.2680 221° Southwest 283 326 12,000 -840 Descending FlightAware ADS-B (KMCO)
10:02 28.5813 -82.2858 234° Southwest 274 315 11,800 -720 Descending FlightAware ADS-B (KMCO)
10:03 28.5571 -82.3292 238° Southwest 273 314 11,400 -600 Descending FlightAware ADS-B (KMCO)
10:04 28.5167 -82.4167 238° Southwest 270 311 10,800 -540 Descending Tampa TRACON
10:05 28.4667 -82.4833 230° Southwest 271 312 10,300 -420 Descending Tampa TRACON
10:06 28.4333 -82.5667 246° West 269 310 10,000 -180 Descending Tampa TRACON
10:07 28.4000 -82.6333 240° Southwest 271 312 10,000  Level Tampa TRACON
10:08 28.3500 -82.7000 230° Southwest 280 322 10,000 -600 Level Tampa TRACON
10:09 28.2833 -82.7500 213° Southwest 294 338 8,800 -1,380 Descending Tampa TRACON
10:10 28.2000 -82.8000 208° Southwest 283 326 7,000 -1,440 Descending Tampa TRACON
10:11 28.1333 -82.8333 204° Southwest 265 305 5,800 -1,440 Descending Tampa TRACON
10:12 28.0500 -82.8167 170° South 279 321 4,000 -1,260 Descending Tampa TRACON
10:13 27.9833 -82.8000 168° South 270 311 3,200 -540 Descending Tampa TRACON
10:14 27.9333 -82.7833 164° South 221 254 3,000 -300 Descending Tampa TRACON
10:15 27.8667 -82.7667 168° South 220 253 2,600 -540 Descending Tampa TRACON
10:16 27.8000 -82.7500 168° South 218 251 2,000 -300 Descending Tampa TRACON
10:17 27.7500 -82.7167 149° Southeast 191 220 2,000  Level Tampa TRACON
10:18 27.7500 -82.6667 90° East 197 227 2,000  Level Tampa TRACON
10:19 27.7833 -82.6500 24° Northeast 170 196 2,000 -240 Level Tampa TRACON
10:20 27.8167 -82.6667 336° Northwest 140 161 1,600 -600 Descending Tampa TRACON
10:21 27.8500 -82.6833 336° Northwest 142 163 800 -840 Descending Tampa TRACON
10:23 27.9100 -82.6875 62° Northeast  Level Estimated
10:30 27.9100 -82.6875 310° West  Level Estimated
10:31 27.9100 -82.6875 69° East  Level Estimated
10:32 27.9100 -82.6875 58° Northeast  Level Estimated
10:33 27.9100 -82.6875 74° East  Level Estimated
10:34 27.9100 -82.6875 184° South  Level Estimated
10:35 27.9100 -82.6875 118° Southeast  Level Estimated
10:36 27.9100 -82.6875 180° South  Level Estimated
10:37 27.9100 -82.6875 69° East  Level Estimated
10:38 27.9100 -82.6875 58° Northeast  Level Estimated